Regional Weather Roundup
Issued by NWS Albany, NY

Home | Current Version | Previous Version | Text Only | Print | Product List | Glossary On
Versions: 1 2 3 4 5 6 7 8 9 10 11 12 13 14 15 16 17 18 19 20 21 22 23 24 25 26 27 28 29 30 31 32 33 34 35 36 37 38 39 40 41 42 43 44 45 46 47 48 49 50
479
ASUS41 KALY 232310
RWRALY

NEW YORK STATE HOURLY WEATHER ROUNDUP
NATIONAL WEATHER SERVICE ALBANY NY
600 PM EST THU FEB 23 2017

NOTE: "FAIR" INDICATES FEW OR NO CLOUDS BELOW 12,000 FEET WITH NO
SIGNIFICANT WEATHER AND/OR NO OBSTRUCTIONS TO VISIBILITY.

NYZ032-033-038>043-046>054-057>066-NYZ062>081-082-084-240000-
EAST


CITY           SKY/WX    TMP DP  RH WIND       PRES   REMARKS
ALBANY         FAIR      64  47  53 S7        29.75R
GLENS FALLS    FAIR      58  44  60 S6        29.72R
POUGHKEEPSIE   MOCLDY    65  50  58 S6        29.80R
NEWBURGH       PTCLDY    64  54  68 SW9       29.82R
MONTGOMERY     FAIR      63  52  67 S8        29.80R
WHITE PLAINS   FAIR      56  49  77 CALM      29.85R
ISLIP          FAIR      50  47  89 SW8       29.86R
NEW YORK CITY  FAIR      61  49  64 S6        29.84R
CENTRAL PARK   FAIR      61  51  70 S5        29.86R
$$

NYZ005>009-017-018-044>046-055-056-240000-
CENTRAL


CITY           SKY/WX    TMP DP  RH WIND       PRES   REMARKS
FULTON         FAIR      61  48  62 W9        29.76R
SYRACUSE       FAIR      61  50  67 W13       29.75R
ROME           MOCLDY    56  51  84 CALM      29.77R
ELMIRA         FAIR      63  49  60 SW9       29.78R
BINGHAMTON     FAIR      58  49  72 W9        29.80R
MONTICELLO     FAIR      61  50  67 W5        29.84R
$$

NYZ026>034-041>043-087-240000-
NORTH


CITY           SKY/WX    TMP DP  RH WIND       PRES   REMARKS
WATERTOWN      FAIR      49  46  90 W9        29.74R FOG
FORT DRUM      NOT AVBL
OGDENSBURG     FAIR      54  49  82 SW9G17    29.69R
MASSENA        FAIR      55  48  77 SW15      29.67R
SARANAC LAKE   FAIR      52  47  83 SW12      29.70R
PLATTSBURGH    FAIR      61  47  59 VRB7      29.68R
$$

NYZ001>004-010>016-019>021-085-240000-
WEST


CITY           SKY/WX    TMP DP  RH WIND       PRES   REMARKS
NIAGARA FALLS  FAIR      52  41  66 NW6       29.81R
BUFFALO        FAIR      48  45  89 W8        29.81R FOG
DUNKIRK        FAIR      53  47  79 W7        29.82R
JAMESTOWN        N/A     55  48  76 NW9       29.83R
WELLSVILLE     FAIR      60  49  66 SW9       29.81R
ROCHESTER      FAIR      58  48  69 W15G25    29.78R
PENN YAN       FAIR      61  49  64 CALM      29.78R
$$

             KEY
       WCI = WIND CHILL INDEX
       VSB = VISIBILITY
       HX  = HEAT INDEX
$$




USA.gov is the U.S. government's official web portal to all federal, state and local government web resources and services.